Regional Weather Roundup
Issued by NWS New Orleans/Baton Rouge, LA

Home | Current Version | Previous Version | Text Only | Print | Product List | Glossary On
Versions: 1 2 3 4 5 6 7 8 9 10 11 12 13 14 15 16 17 18 19 20 21 22 23 24 25 26 27 28 29 30 31 32 33 34 35 36 37 38 39 40 41 42 43 44 45 46 47 48 49 50
934
ASUS44 KLIX 300101
RWRLIX
NEW ORLEANS REGIONAL WEATHER ROUNDUP
NATIONAL WEATHER SERVICE NEW ORLEANS LA
800 PM CDT TUE JUL 29 2014

NOTE: "FAIR" INDICATES FEW OR NO CLOUDS BELOW 12,000 FEET WITH NO
      SIGNIFICANT WEATHER AND/OR OBSTRUCTIONS TO VISIBILITY.
      SKY/WX - SKY CONDITION AND SIGNIFICANT WEATHER.
      TMP - AIR TEMPERATURE.     DP    - DEWPOINT TEMPERATURE.
      RH  - RELATIVE HUMIDITY.   PRES  - PRESSURE.
      HI  - HEAT INDEX.          WCI   - WIND CHILL INDEX.

*  THESE STATIONS ARE NOT NWS OR FAA STATIONS AND ARE NOT UNDER
   NWS QUALITY CONTROL.

LAZ038-040-048-061>063-065>067-069-300200-
SOUTHEAST LOUISIANA

CITY           SKY/WX    TMP DP  RH WIND       PRES   REMARKS
N.O. AUDUBON     N/A     84  64  50 MISG        N/A
N.O. INTL ARPT MOCLDY    83  63  50 N3        30.01S
N.O. LAKEFRONT CLEAR     85  64  49 N8        30.01S
N.O. DOWNTOWN*   N/A     84  63  48 CALM      30.01S
SLIDELL        CLEAR     81  69  67 CALM      30.00S
BATON ROUGE    CLEAR     81  67  62 CALM      30.02S
BOOTHVILLE     PTCLDY    80  72  76 CALM      30.01S
BELLE CHASSE   MOCLDY    81  63  54 N3        30.01R
BOGALUSA*        N/A     80  71  73 CALM      30.02S
GALLIANO*      NOT AVBL
NEW ROADS*       N/A     81  69  66 NW3       30.02S
GONZALES*        N/A     78  71  80 CALM      30.01S
HAMMOND*       CLEAR     81  66  61 CALM      30.03R
HOUMA*         PTCLDY    82  69  64 CALM      30.01R
PORT FOURCHON* CLEAR     84  68  58 N9        30.02S

$$

MSZ070-080>082-300200-
SOUTHERN MISSISSIPPI

CITY           SKY/WX    TMP DP  RH WIND       PRES   REMARKS
MCCOMB         CLEAR     80  66  62 N7        30.03S
GULFPORT       CLEAR     85  66  53 CALM      29.98S
BILOXI         CLEAR     84  65  53 NW2       29.98S
PASCAGOULA     CLEAR     77  69  76 W3        29.98S
STENNIS ARPT*  CLEAR    N/A N/A N/A CALM      30.00S

$$

COASTAL OBSERVATIONS
LAKE AND NEARSHORE STATIONS

STATION/POSITION TIME  TEMP    WIND        PRES    WAVE
                       AIR SEA DIR/SP/G            HT/PER
                 (UTC) (F)     (DEG/KT/KT) (MB)    (FT/S)
PASCAGOULA       0000   85     330/  5/  6 1014.8
WAVELAND YACHT   0000   85     310/  4/  6 1015.1
GRAND ISLE       0000   85 87  350/  7/ 12 1016.7
SOUTHWEST PASS   0000   85 85   40/ 10/ 10 1016.4
NEW CANAL        0000   86 86  320/  4/  6 1016.4
SHELL BEACH      0000   84 83  300/ 10/ 11 1015.6

OFFSHORE STATIONS

STATION/POSITION TIME  TEMP    WIND        PRES    WAVE
                       AIR SEA DIR/SP/G            HT/PER
                 (UTC) (F)     (DEG/KT/KT) (MB)    (FT/S)
64 S DAUPHIN ISL 0035   83 87  340/  8/ 10 1015.7

$$




USA.gov is the U.S. government's official web portal to all federal, state and local government web resources and services.